contact:dominique.lefevre@mio.osupytheas.fr, maurice.libes@osupytheas.fr, didier.mallarino@osupytheas.fr
Project:EMSO http://www.emso-fr.org/EMSO-France
Depth: 2436.0 m
Title:EMSO Ligure Ouest : Data MII capteur AQUADOPP
Date,Latitude,Longitude,X_East,Y_North,Z_Up,Amplitude_X,Amplitude_Y,Amplitude_Z,Batterie,SoundSpeed,Heading,Pitch,Roll,Pressure,TIS,Speed,Direction
, degrees North, degrees East, m.s-1, m.s-1,m.s-1, 1, 1, 1, Volt, m.s-1, degree, degree, degree, dbar, degree_C, m.s-1, degree
2024-04-27T00:04:03,42.805,6.029,-0.028,0.022,-0.019,107.0,105.0,103.0,13.4,1505.2,6.5,-0.8,1.8,2471.725,13.29,0.035,308.2
2024-04-27T00:07:03,42.805,6.029,-0.034,0.017,-0.014,107.0,106.0,104.0,13.3,1505.2,8.8,-0.8,1.8,2471.72,13.29,0.038,296.6
2024-04-27T00:10:03,42.805,6.029,-0.036,0.0,-0.012,108.0,107.0,103.0,13.3,1505.2,4.7,-0.8,1.8,2471.674,13.29,0.036,270.0
2024-04-27T00:13:03,42.805,6.029,-0.051,0.012,-0.008,107.0,106.0,104.0,13.4,1505.2,4.9,-0.8,1.8,2471.692,13.29,0.052,283.2
2024-04-27T00:16:03,42.805,6.029,-0.03,0.015,-0.01,107.0,106.0,103.0,13.3,1505.2,8.9,-0.7,1.8,2471.654,13.29,0.033,296.6
2024-04-27T00:19:03,42.805,6.029,-0.048,0.006,0.009,107.0,106.0,105.0,13.3,1505.2,6.2,-0.8,1.8,2471.672,13.29,0.048,277.1
2024-04-27T00:22:03,42.805,6.029,-0.049,0.021,-0.017,107.0,106.0,103.0,13.3,1505.2,357.4,-0.8,1.8,2471.737,13.29,0.053,293.2
2024-04-27T00:25:03,42.805,6.029,-0.065,0.022,-0.004,107.0,105.0,102.0,13.3,1505.2,3.7,-0.7,1.8,2471.659,13.29,0.068,288.7
2024-04-27T00:28:03,42.805,6.029,-0.043,0.011,0.0,106.0,105.0,104.0,13.3,1505.2,9.6,-0.8,1.8,2471.687,13.29,0.044,284.3
2024-04-27T00:31:03,42.805,6.029,-0.036,0.001,0.0,107.0,106.0,105.0,13.4,1505.2,356.4,-0.8,1.8,2471.643,13.29,0.036,271.6
2024-04-27T00:34:03,42.805,6.029,-0.04,0.03,0.01,107.0,106.0,104.0,13.3,1505.2,6.5,-0.7,1.8,2471.666,13.29,0.05,306.9
2024-04-27T00:37:03,42.805,6.029,-0.064,0.021,-0.008,108.0,106.0,103.0,13.3,1505.2,358.3,-0.7,1.8,2471.699,13.29,0.067,288.2
2024-04-27T00:40:03,42.805,6.029,-0.05,-0.003,0.008,106.0,107.0,102.0,13.4,1505.2,5.0,-0.8,1.8,2471.679,13.29,0.05,266.6
2024-04-27T00:43:03,42.805,6.029,-0.04,-0.003,-0.024,108.0,105.0,103.0,13.4,1505.2,1.6,-0.8,1.9,2471.649,13.29,0.04,265.7
2024-04-27T00:46:03,42.805,6.029,-0.049,0.0,-0.003,108.0,106.0,104.0,13.4,1505.2,2.2,-0.8,1.8,2471.673,13.29,0.049,270.0
2024-04-27T00:49:03,42.805,6.029,-0.039,0.005,-0.009,107.0,105.0,103.0,13.4,1505.2,354.7,-0.8,1.8,2471.663,13.29,0.039,277.3
2024-04-27T00:52:03,42.805,6.029,-0.026,-0.009,-0.003,107.0,107.0,103.0,13.3,1505.2,355.2,-0.7,1.8,2471.616,13.29,0.027,250.9
2024-04-27T00:55:03,42.805,6.029,-0.035,0.002,-0.012,107.0,106.0,103.0,13.3,1505.2,5.0,-0.8,1.8,2471.635,13.29,0.035,273.3
2024-04-27T00:58:03,42.805,6.029,-0.032,0.006,-0.008,107.0,106.0,103.0,13.4,1505.2,358.4,-0.8,1.8,2471.672,13.29,0.032,280.6
2024-04-27T01:04:03,42.805,6.029,-0.055,0.032,0.019,108.0,108.0,105.0,13.3,1505.2,358.8,-0.8,1.8,2471.73,13.29,0.063,300.2
2024-04-27T01:07:03,42.805,6.029,-0.049,0.004,0.011,108.0,106.0,105.0,13.4,1505.2,2.8,-0.8,1.8,2471.675,13.29,0.049,274.7
2024-04-27T01:10:03,42.805,6.029,-0.042,0.013,0.014,107.0,107.0,103.0,13.4,1505.2,1.6,-0.7,1.8,2471.71,13.29,0.043,287.2
2024-04-27T01:13:03,42.805,6.029,-0.047,-0.023,-0.001,107.0,106.0,103.0,13.4,1505.2,10.1,-0.7,1.8,2471.634,13.29,0.052,243.9
2024-04-27T01:16:03,42.805,6.029,-0.034,0.016,-0.024,107.0,106.0,104.0,13.3,1505.2,357.2,-0.7,1.8,2471.643,13.29,0.037,295.2
2024-04-27T01:19:03,42.805,6.029,-0.065,0.021,-0.007,108.0,106.0,104.0,13.3,1505.2,8.9,-0.8,1.8,2471.652,13.29,0.068,287.9
2024-04-27T01:22:03,42.805,6.029,-0.035,0.026,0.013,107.0,105.0,104.0,13.3,1505.2,7.3,-0.7,1.8,2471.66,13.29,0.043,306.6
2024-04-27T01:25:03,42.805,6.029,-0.038,0.0,-0.026,108.0,105.0,104.0,13.4,1505.2,355.3,-0.8,1.8,2471.65,13.29,0.038,270.0
2024-04-27T01:28:03,42.805,6.029,-0.031,0.003,-0.027,106.0,107.0,104.0,13.4,1505.2,4.7,-0.8,1.8,2471.649,13.29,0.031,275.5
2024-04-27T01:31:03,42.805,6.029,-0.04,0.0,0.012,107.0,106.0,103.0,13.4,1505.2,4.8,-0.7,1.8,2471.637,13.29,0.04,270.0
2024-04-27T01:34:03,42.805,6.029,-0.048,0.006,0.031,106.0,106.0,104.0,13.3,1505.2,2.2,-0.7,1.8,2471.634,13.29,0.048,277.1
2024-04-27T01:37:03,42.805,6.029,-0.052,0.011,-0.021,107.0,105.0,105.0,13.4,1505.2,358.4,-0.8,1.8,2471.624,13.29,0.053,281.9
2024-04-27T01:40:03,42.805,6.029,-0.038,0.005,-0.009,109.0,106.0,103.0,13.4,1505.2,5.6,-0.8,1.8,2471.646,13.29,0.038,277.5
2024-04-27T01:43:03,42.805,6.029,-0.04,0.023,0.0,106.0,107.0,104.0,13.4,1505.2,8.7,-0.8,1.8,2471.645,13.29,0.046,299.9
2024-04-27T01:46:03,42.805,6.029,-0.042,-0.005,0.0,108.0,106.0,103.0,13.4,1505.2,355.3,-0.7,1.8,2471.621,13.29,0.042,263.2
2024-04-27T01:49:03,42.805,6.029,-0.038,0.021,-0.04,107.0,107.0,103.0,13.3,1505.2,5.4,-0.8,1.8,2471.692,13.29,0.043,298.9
2024-04-27T01:52:03,42.805,6.029,-0.046,0.011,-0.006,107.0,105.0,104.0,13.4,1505.2,359.4,-0.8,1.8,2471.64,13.29,0.047,283.4
2024-04-27T01:55:03,42.805,6.029,-0.047,-0.012,0.003,107.0,105.0,105.0,13.3,1505.2,1.0,-0.7,1.8,2471.619,13.29,0.048,255.7
2024-04-27T01:58:03,42.805,6.029,-0.063,0.014,-0.009,108.0,106.0,104.0,13.4,1505.2,5.0,-0.8,1.8,2471.623,13.29,0.064,282.5
2024-04-27T02:04:03,42.805,6.029,-0.056,0.0,-0.027,107.0,107.0,103.0,13.4,1505.2,355.8,-0.8,1.8,2471.678,13.29,0.056,270.0
2024-04-27T02:07:03,42.805,6.029,-0.039,0.014,0.009,107.0,110.0,104.0,13.4,1505.2,5.0,-0.8,1.8,2471.67,13.29,0.041,289.7
2024-04-27T02:10:03,42.805,6.029,-0.058,0.021,-0.011,107.0,106.0,104.0,13.4,1505.2,9.2,-0.7,1.8,2471.629,13.29,0.061,289.9
2024-04-27T02:13:03,42.805,6.029,-0.049,0.018,0.007,107.0,106.0,104.0,13.4,1505.2,6.8,-0.8,1.8,2471.603,13.29,0.052,290.2
2024-04-27T02:16:03,42.805,6.029,-0.046,0.001,-0.007,108.0,107.0,104.0,13.3,1505.2,5.6,-0.8,1.8,2471.625,13.29,0.046,271.2
2024-04-27T02:19:03,42.805,6.029,-0.049,0.01,0.013,107.0,107.0,105.0,13.4,1505.2,358.3,-0.8,1.7,2471.665,13.29,0.05,281.5
2024-04-27T02:22:03,42.805,6.029,-0.039,0.017,0.001,108.0,106.0,104.0,13.4,1505.2,9.3,-0.8,1.8,2471.655,13.29,0.042,293.5
2024-04-27T02:25:03,42.805,6.029,-0.041,0.003,0.0,106.0,107.0,104.0,13.4,1505.2,354.4,-0.7,1.8,2471.612,13.29,0.041,274.2
2024-04-27T02:28:03,42.805,6.029,-0.027,-0.002,0.001,107.0,105.0,104.0,13.4,1505.2,0.0,-0.7,1.8,2471.651,13.29,0.027,265.8
2024-04-27T02:31:03,42.805,6.029,-0.046,0.003,-0.009,106.0,107.0,103.0,13.3,1505.2,0.0,-0.7,1.8,2471.636,13.29,0.046,273.7
2024-04-27T02:34:03,42.805,6.029,-0.054,-0.005,-0.006,108.0,106.0,102.0,13.4,1505.2,353.0,-0.8,1.8,2471.581,13.29,0.054,264.7
2024-04-27T02:37:03,42.805,6.029,-0.023,-0.002,-0.003,108.0,106.0,103.0,13.4,1505.2,2.8,-0.8,1.8,2471.646,13.29,0.023,265.0
2024-04-27T02:40:03,42.805,6.029,-0.047,0.017,-0.008,107.0,105.0,104.0,13.4,1505.2,358.3,-0.8,1.8,2471.596,13.29,0.049,289.9
2024-04-27T02:43:03,42.805,6.029,-0.033,0.004,0.0,107.0,106.0,103.0,13.4,1505.2,6.8,-0.7,1.8,2471.612,13.29,0.033,276.9
2024-04-27T02:46:03,42.805,6.029,-0.04,-0.003,-0.018,108.0,107.0,104.0,13.4,1505.2,10.2,-0.8,1.8,2471.586,13.29,0.04,265.7
2024-04-27T02:49:03,42.805,6.029,-0.046,0.0,0.0,107.0,106.0,104.0,13.4,1505.2,0.5,-0.7,1.8,2471.624,13.29,0.046,270.0
2024-04-27T02:52:03,42.805,6.029,-0.047,0.0,0.006,107.0,106.0,104.0,13.4,1505.2,8.3,-0.8,1.8,2471.575,13.29,0.047,270.0
2024-04-27T02:55:03,42.805,6.029,-0.054,0.009,0.001,108.0,107.0,105.0,13.4,1505.2,355.1,-0.7,1.8,2471.611,13.29,0.054,279.5
2024-04-27T02:58:03,42.805,6.029,-0.04,-0.005,0.007,106.0,107.0,105.0,13.4,1505.2,358.3,-0.8,1.8,2471.644,13.29,0.04,262.9
2024-04-27T03:04:03,42.805,6.029,-0.052,-0.009,-0.018,108.0,107.0,104.0,13.4,1505.2,356.9,-0.7,1.8,2471.627,13.29,0.052,260.2
2024-04-27T03:07:03,42.805,6.029,-0.035,0.009,-0.009,107.0,105.0,103.0,13.4,1505.2,5.0,-0.8,1.8,2471.604,13.29,0.036,284.4
2024-04-27T03:10:03,42.805,6.029,-0.061,0.019,-0.021,108.0,106.0,104.0,13.4,1505.2,9.1,-0.8,1.8,2471.63,13.29,0.063,287.3
2024-04-27T03:13:03,42.805,6.029,-0.039,0.014,-0.005,108.0,106.0,105.0,13.4,1505.2,356.3,-0.8,1.8,2471.597,13.29,0.041,289.7
2024-04-27T03:16:03,42.805,6.029,-0.053,0.013,0.009,108.0,106.0,104.0,13.4,1505.2,356.6,-0.8,1.8,2471.592,13.29,0.054,283.8
2024-04-27T03:19:03,42.805,6.029,-0.042,0.01,-0.013,106.0,107.0,104.0,13.4,1505.2,4.8,-0.7,1.8,2471.619,13.29,0.043,283.4
2024-04-27T03:22:03,42.805,6.029,-0.044,-0.011,0.005,107.0,106.0,105.0,13.3,1505.2,3.9,-0.8,1.8,2471.614,13.29,0.045,256.0
2024-04-27T03:25:03,42.805,6.029,-0.04,0.025,-0.031,107.0,108.0,105.0,13.4,1505.2,3.0,-0.8,1.8,2471.644,13.29,0.047,302.0
2024-04-27T03:28:03,42.805,6.029,-0.043,0.005,0.022,106.0,106.0,103.0,13.4,1505.2,357.9,-0.7,1.8,2471.596,13.29,0.043,276.6
2024-04-27T03:31:03,42.805,6.029,-0.032,0.029,0.014,107.0,107.0,103.0,13.3,1505.2,4.2,-0.7,1.8,2471.586,13.29,0.043,312.2
2024-04-27T03:34:03,42.805,6.029,-0.069,0.013,-0.018,108.0,106.0,104.0,13.4,1505.2,8.7,-0.7,1.8,2471.592,13.29,0.07,280.7
2024-04-27T03:37:03,42.805,6.029,-0.051,0.003,-0.046,106.0,107.0,104.0,13.3,1505.2,355.8,-0.7,1.8,2471.627,13.29,0.051,273.4
2024-04-27T03:40:03,42.805,6.029,-0.06,0.0,-0.036,108.0,106.0,104.0,13.4,1505.2,0.5,-0.8,1.9,2471.564,13.29,0.06,270.0
2024-04-27T03:43:03,42.805,6.029,-0.063,-0.013,-0.049,108.0,106.0,104.0,13.4,1505.2,359.4,-0.8,1.8,2471.57,13.29,0.064,258.3
2024-04-27T03:46:03,42.805,6.029,-0.044,0.026,0.006,108.0,105.0,103.0,13.4,1505.2,9.2,-0.8,1.8,2471.576,13.29,0.051,300.6
2024-04-27T03:49:03,42.805,6.029,-0.062,0.02,0.018,107.0,106.0,102.0,13.3,1505.2,0.5,-0.8,1.8,2471.594,13.29,0.065,287.9
2024-04-27T03:52:03,42.805,6.029,-0.043,0.008,-0.01,107.0,107.0,104.0,13.3,1505.2,356.4,-0.7,1.8,2471.628,13.29,0.043,280.5
2024-04-27T03:55:03,42.805,6.029,-0.035,0.0,0.0,107.0,106.0,104.0,13.4,1505.2,3.2,-0.8,1.8,2471.597,13.29,0.035,270.0
2024-04-27T03:58:03,42.805,6.029,-0.04,0.017,-0.02,108.0,106.0,103.0,13.4,1505.2,6.7,-0.8,1.8,2471.587,13.29,0.043,293.0
2024-04-27T04:04:03,42.805,6.029,-0.058,-0.029,-0.011,106.0,107.0,104.0,13.3,1505.2,1.1,-0.8,1.8,2471.6,13.29,0.064,243.4
2024-04-27T04:07:03,42.805,6.029,-0.06,0.0,-0.009,106.0,106.0,104.0,13.4,1505.2,358.8,-0.8,1.8,2471.627,13.29,0.06,270.0
2024-04-27T04:10:03,42.805,6.029,-0.044,0.007,-0.046,107.0,106.0,104.0,13.4,1505.2,6.7,-0.7,1.8,2471.637,13.29,0.044,279.0
2024-04-27T04:13:03,42.805,6.029,-0.053,-0.006,0.019,108.0,107.0,103.0,13.3,1505.2,354.4,-0.7,1.8,2471.627,13.29,0.053,263.5
2024-04-27T04:16:03,42.805,6.029,-0.038,-0.014,-0.013,107.0,107.0,103.0,13.4,1505.2,357.7,-0.8,1.8,2471.607,13.29,0.04,249.8
2024-04-27T04:19:03,42.805,6.029,-0.057,0.0,-0.012,108.0,107.0,104.0,13.3,1505.2,9.2,-0.8,1.8,2471.616,13.29,0.057,270.0
2024-04-27T04:22:03,42.805,6.029,-0.045,0.022,-0.001,107.0,106.0,104.0,13.3,1505.2,7.8,-0.8,1.8,2471.595,13.29,0.05,296.1
2024-04-27T04:25:03,42.805,6.029,-0.058,0.016,-0.017,107.0,106.0,104.0,13.4,1505.2,2.2,-0.8,1.8,2471.613,13.29,0.06,285.4
2024-04-27T04:28:03,42.805,6.029,-0.048,0.009,-0.021,107.0,108.0,104.0,13.3,1505.2,357.8,-0.8,1.8,2471.612,13.29,0.048,280.6
2024-04-27T04:31:03,42.805,6.029,-0.072,0.008,0.009,108.0,106.0,104.0,13.3,1505.2,5.5,-0.7,1.8,2471.574,13.29,0.072,276.3
2024-04-27T04:34:03,42.805,6.029,-0.056,-0.011,-0.019,108.0,107.0,104.0,13.4,1505.2,3.3,-0.7,1.8,2471.577,13.29,0.057,258.9
2024-04-27T04:37:03,42.805,6.029,-0.022,-0.008,-0.019,107.0,106.0,104.0,13.3,1505.2,4.4,-0.8,1.8,2471.629,13.29,0.023,250.0
2024-04-27T04:40:03,42.805,6.029,-0.074,0.013,-0.019,108.0,106.0,104.0,13.3,1505.2,7.1,-0.8,1.8,2471.609,13.29,0.075,280.0
2024-04-27T04:43:03,42.805,6.029,-0.058,-0.001,-0.008,108.0,105.0,104.0,13.4,1505.2,5.9,-0.7,1.9,2471.618,13.29,0.058,269.0
2024-04-27T04:46:03,42.805,6.029,-0.058,-0.003,-0.023,108.0,107.0,104.0,13.4,1505.2,3.8,-0.8,1.8,2471.61,13.29,0.058,267.0
2024-04-27T04:49:03,42.805,6.029,-0.053,0.002,-0.012,108.0,106.0,104.0,13.4,1505.2,355.8,-0.8,1.8,2471.601,13.29,0.053,272.2
2024-04-27T04:52:03,42.805,6.029,-0.05,0.004,0.009,107.0,106.0,104.0,13.3,1505.2,357.8,-0.7,1.8,2471.59,13.29,0.05,274.6
2024-04-27T04:55:03,42.805,6.029,-0.04,0.028,-0.011,107.0,108.0,104.0,13.4,1505.2,7.6,-0.7,1.8,2471.587,13.29,0.048,305.0
2024-04-27T04:58:03,42.805,6.029,-0.044,0.004,-0.034,106.0,106.0,103.0,13.4,1505.2,356.3,-0.8,1.8,2471.627,13.29,0.044,275.2
2024-04-27T05:01:03,42.805,6.029,-0.042,0.0,-0.004,108.0,105.0,104.0,13.3,1505.2,2.8,-0.8,1.8,2471.588,13.29,0.042,270.0
2024-04-27T05:04:03,42.805,6.029,-0.031,0.024,0.0,107.0,106.0,104.0,13.4,1505.2,358.9,-0.7,1.8,2471.591,13.29,0.039,307.7
2024-04-27T05:07:03,42.805,6.029,-0.045,-0.006,-0.017,107.0,106.0,103.0,13.3,1505.2,355.3,-0.8,1.8,2471.586,13.29,0.045,262.4
2024-04-27T05:10:03,42.805,6.029,-0.048,0.017,-0.033,108.0,107.0,105.0,13.3,1505.2,5.4,-0.7,1.8,2471.601,13.29,0.05,289.5
2024-04-27T05:13:03,42.805,6.029,-0.043,-0.009,-0.01,107.0,106.0,103.0,13.4,1505.2,9.2,-0.7,1.8,2471.586,13.29,0.043,258.2
2024-04-27T05:16:03,42.805,6.029,-0.053,-0.018,-0.019,107.0,106.0,104.0,13.3,1505.2,0.0,-0.8,1.8,2471.607,13.29,0.055,251.2
2024-04-27T05:19:03,42.805,6.029,-0.047,-0.02,0.0,107.0,106.0,104.0,13.4,1505.2,8.6,-0.7,1.8,2471.602,13.29,0.051,247.0
2024-04-27T05:22:03,42.805,6.029,-0.046,-0.009,0.003,106.0,106.0,104.0,13.4,1505.2,2.2,-0.8,1.9,2471.629,13.29,0.046,258.9
2024-04-27T05:25:03,42.805,6.029,-0.057,0.001,-0.01,108.0,106.0,103.0,13.3,1505.2,3.3,-0.7,1.8,2471.621,13.29,0.057,271.0
2024-04-27T05:28:03,42.805,6.029,-0.062,0.0,-0.027,108.0,104.0,104.0,13.3,1505.2,354.5,-0.8,1.8,2471.626,13.29,0.061,270.0
2024-04-27T05:31:03,42.805,6.029,-0.06,-0.002,0.016,107.0,107.0,104.0,13.4,1505.2,2.6,-0.8,1.8,2471.587,13.29,0.06,268.1
2024-04-27T05:34:03,42.805,6.029,-0.069,0.023,0.0,108.0,106.0,104.0,13.4,1505.2,359.4,-0.8,1.8,2471.61,13.29,0.072,288.4
2024-04-27T05:37:03,42.805,6.029,-0.05,-0.001,-0.027,108.0,106.0,103.0,13.4,1505.2,0.9,-0.7,1.8,2471.665,13.29,0.05,268.9
2024-04-27T05:40:03,42.805,6.029,-0.067,0.002,0.015,109.0,106.0,104.0,13.4,1505.2,2.3,-0.8,1.8,2471.614,13.29,0.067,271.7
2024-04-27T05:43:03,42.805,6.029,-0.064,0.006,-0.012,108.0,107.0,104.0,13.4,1505.2,357.8,-0.8,1.8,2471.621,13.29,0.064,275.4
2024-04-27T05:46:03,42.805,6.029,-0.05,-0.008,-0.001,108.0,108.0,104.0,13.4,1505.2,358.2,-0.7,1.8,2471.613,13.29,0.05,260.9
2024-04-27T05:49:03,42.805,6.029,-0.047,0.0,0.016,107.0,105.0,104.0,13.4,1505.2,357.8,-0.7,1.8,2471.605,13.29,0.047,270.0
2024-04-27T05:52:03,42.805,6.029,-0.057,0.003,-0.017,107.0,106.0,103.0,13.3,1505.2,355.2,-0.8,1.8,2471.662,13.29,0.057,273.0
2024-04-27T05:55:03,42.805,6.029,-0.064,0.0,-0.011,108.0,107.0,103.0,13.3,1505.2,358.3,-0.8,1.8,2471.626,13.29,0.063,270.0
2024-04-27T05:58:03,42.805,6.029,-0.059,0.011,-0.018,107.0,107.0,104.0,13.3,1505.2,5.7,-0.7,1.8,2471.659,13.29,0.06,280.6
2024-04-27T06:04:03,42.805,6.029,-0.035,-0.009,-0.005,108.0,107.0,104.0,13.4,1505.2,5.4,-0.8,1.8,2471.68,13.29,0.036,255.6
2024-04-27T06:07:03,42.805,6.029,-0.032,-0.013,0.0,108.0,108.0,104.0,13.4,1505.2,358.8,-0.8,1.8,2471.679,13.29,0.034,247.9
2024-04-27T06:10:03,42.805,6.029,-0.062,-0.011,-0.003,108.0,107.0,104.0,13.3,1505.2,354.7,-0.8,1.8,2471.676,13.29,0.062,259.9
2024-04-27T06:13:03,42.805,6.029,-0.05,0.0,-0.013,108.0,107.0,104.0,13.4,1505.2,2.8,-0.8,1.8,2471.694,13.29,0.05,270.0
2024-04-27T06:16:03,42.805,6.029,-0.056,0.013,0.0,109.0,108.0,104.0,13.4,1505.2,7.2,-0.8,1.8,2471.69,13.29,0.057,283.1
2024-04-27T06:19:03,42.805,6.029,-0.045,-0.003,-0.017,106.0,108.0,105.0,13.4,1505.2,2.0,-0.7,1.8,2471.646,13.29,0.045,266.2
2024-04-27T06:22:03,42.805,6.029,-0.053,-0.004,-0.019,108.0,108.0,105.0,13.4,1505.2,3.4,-0.8,1.8,2471.722,13.29,0.053,265.7
2024-04-27T06:25:03,42.805,6.029,-0.052,0.006,-0.007,108.0,107.0,105.0,13.3,1505.2,1.1,-0.8,1.8,2471.66,13.29,0.052,276.6
2024-04-27T06:28:03,42.805,6.029,-0.062,-0.001,-0.013,108.0,107.0,104.0,13.4,1505.2,4.4,-0.8,1.8,2471.646,13.29,0.062,269.1
2024-04-27T06:31:03,42.805,6.029,-0.041,-0.012,-0.006,107.0,107.0,105.0,13.4,1505.2,355.0,-0.8,1.8,2471.632,13.29,0.042,253.7
2024-04-27T06:34:03,42.805,6.029,-0.04,0.008,0.009,108.0,108.0,105.0,13.4,1505.2,357.8,-0.8,1.8,2471.674,13.29,0.04,281.3
2024-04-27T06:37:03,42.805,6.029,-0.055,-0.02,0.0,109.0,108.0,105.0,13.4,1505.2,355.8,-0.8,1.8,2471.642,13.29,0.058,250.0
2024-04-27T06:40:03,42.805,6.029,-0.037,-0.007,-0.009,109.0,107.0,104.0,13.3,1505.2,1.0,-0.8,1.8,2471.646,13.29,0.037,259.3
2024-04-27T06:43:03,42.805,6.029,-0.046,0.002,-0.05,109.0,108.0,105.0,13.4,1505.2,1.5,-0.8,1.8,2471.666,13.29,0.046,272.5
2024-04-27T06:46:03,42.805,6.029,-0.048,0.027,-0.002,110.0,107.0,105.0,13.3,1505.2,7.2,-0.8,1.8,2471.65,13.29,0.055,299.4
2024-04-27T06:49:03,42.805,6.029,-0.052,-0.005,-0.01,109.0,109.0,104.0,13.4,1505.2,355.3,-0.7,1.8,2471.656,13.29,0.052,264.5
2024-04-27T06:52:03,42.805,6.029,-0.048,0.0,-0.015,109.0,108.0,104.0,13.4,1505.2,2.1,-0.7,1.8,2471.652,13.29,0.048,270.0
2024-04-27T06:55:03,42.805,6.029,-0.039,-0.014,0.013,110.0,107.0,105.0,13.3,1505.2,354.4,-0.8,1.8,2471.704,13.29,0.041,250.3
2024-04-27T06:58:03,42.805,6.029,-0.049,0.011,-0.039,108.0,108.0,105.0,13.4,1505.2,1.0,-0.8,1.8,2471.692,13.29,0.05,282.7
2024-04-27T07:04:03,42.805,6.029,-0.051,0.004,-0.005,108.0,107.0,106.0,13.4,1505.2,9.0,-0.7,1.8,2471.731,13.29,0.051,274.5
2024-04-27T07:07:03,42.805,6.029,-0.061,0.011,0.014,110.0,108.0,105.0,13.3,1505.2,8.4,-0.8,1.8,2471.725,13.29,0.061,280.2
2024-04-27T07:10:03,42.805,6.029,-0.048,0.002,0.01,109.0,107.0,105.0,13.3,1505.2,356.5,-0.7,1.8,2471.725,13.29,0.048,272.4
2024-04-27T07:13:03,42.805,6.029,-0.056,0.021,-0.029,108.0,108.0,105.0,13.4,1505.2,4.8,-0.8,1.8,2471.748,13.29,0.059,290.6
2024-04-27T07:16:03,42.805,6.029,-0.061,-0.018,0.008,110.0,107.0,106.0,13.3,1505.2,1.0,-0.8,1.8,2471.719,13.29,0.063,253.6
2024-04-27T07:19:03,42.805,6.029,-0.05,0.024,-0.015,109.0,110.0,104.0,13.4,1505.2,8.5,-0.8,1.8,2471.765,13.29,0.055,295.6
2024-04-27T07:22:03,42.805,6.029,-0.074,0.003,-0.013,109.0,107.0,106.0,13.4,1505.2,356.1,-0.8,1.8,2471.733,13.29,0.074,272.3
2024-04-27T07:25:03,42.805,6.029,-0.07,0.018,-0.031,109.0,108.0,104.0,13.3,1505.2,1.6,-0.7,1.8,2471.706,13.29,0.072,284.4
2024-04-27T07:28:03,42.805,6.029,-0.063,0.019,-0.007,109.0,108.0,105.0,13.3,1505.2,3.0,-0.8,1.8,2471.732,13.29,0.065,286.8
2024-04-27T07:31:03,42.805,6.029,-0.073,-0.002,-0.017,110.0,109.0,105.0,13.4,1505.2,2.2,-0.8,1.8,2471.705,13.29,0.073,268.4
2024-04-27T07:34:03,42.805,6.029,-0.049,0.01,0.0,109.0,108.0,105.0,13.4,1505.2,9.9,-0.8,1.8,2471.727,13.29,0.05,281.5
2024-04-27T07:37:03,42.805,6.029,-0.059,0.003,-0.005,110.0,108.0,105.0,13.4,1505.2,1.0,-0.8,1.8,2471.663,13.29,0.059,272.9
2024-04-27T07:40:03,42.805,6.029,-0.07,0.008,-0.001,110.0,107.0,106.0,13.4,1505.2,358.3,-0.8,1.8,2471.71,13.29,0.07,276.5
2024-04-27T07:43:03,42.805,6.029,-0.046,0.0,-0.018,110.0,109.0,105.0,13.4,1505.2,354.7,-0.8,1.8,2471.71,13.29,0.046,270.0
2024-04-27T07:46:03,42.805,6.029,-0.072,0.018,-0.005,109.0,108.0,105.0,13.3,1505.2,6.4,-0.8,1.8,2471.704,13.29,0.074,284.0
2024-04-27T07:49:03,42.805,6.029,-0.068,-0.01,-0.009,110.0,108.0,105.0,13.4,1505.2,4.4,-0.7,1.8,2471.701,13.29,0.068,261.6
2024-04-27T07:52:03,42.805,6.029,-0.064,-0.004,0.002,109.0,108.0,106.0,13.4,1505.2,353.8,-0.7,1.8,2471.68,13.29,0.064,266.4
2024-04-27T07:55:03,42.805,6.029,-0.046,0.005,-0.004,109.0,108.0,105.0,13.3,1505.2,357.8,-0.8,1.8,2471.673,13.29,0.046,276.2
2024-04-27T07:58:03,42.805,6.029,-0.04,0.009,-0.006,109.0,109.0,106.0,13.4,1505.2,9.5,-0.7,1.8,2471.709,13.29,0.041,282.7
2024-04-27T08:04:03,42.805,6.029,-0.075,0.014,-0.02,109.0,107.0,105.0,13.4,1505.2,9.7,-0.8,1.8,2471.755,13.29,0.076,280.6
2024-04-27T08:07:03,42.805,6.029,-0.065,0.005,0.014,109.0,108.0,104.0,13.4,1505.2,5.0,-0.7,1.8,2471.727,13.29,0.065,274.4
2024-04-27T08:10:03,42.805,6.029,-0.035,0.019,-0.034,109.0,107.0,105.0,13.4,1505.2,10.2,-0.8,1.8,2471.753,13.29,0.039,298.5
2024-04-27T08:13:03,42.805,6.029,-0.043,0.007,-0.002,108.0,107.0,105.0,13.4,1505.2,3.9,-0.8,1.8,2471.724,13.29,0.043,279.2
2024-04-27T08:16:03,42.805,6.029,-0.07,0.02,-0.001,109.0,108.0,105.0,13.4,1505.2,7.2,-0.8,1.8,2471.729,13.29,0.072,285.9
2024-04-27T08:19:03,42.805,6.029,-0.07,0.023,-0.008,110.0,108.0,105.0,13.4,1505.2,356.3,-0.8,1.8,2471.74,13.29,0.073,288.2
2024-04-27T08:22:03,42.805,6.029,-0.063,0.017,-0.003,108.0,108.0,106.0,13.4,1505.2,3.2,-0.7,1.8,2471.71,13.29,0.065,285.1
2024-04-27T08:25:03,42.805,6.029,-0.035,0.005,-0.005,108.0,107.0,106.0,13.4,1505.2,5.1,-0.7,1.8,2471.734,13.29,0.035,278.1
2024-04-27T08:28:03,42.805,6.029,-0.053,0.032,-0.031,108.0,108.0,105.0,13.4,1505.2,10.1,-0.8,1.8,2471.71,13.29,0.061,301.1
2024-04-27T08:31:03,42.805,6.029,-0.037,0.029,0.002,108.0,108.0,104.0,13.3,1505.2,9.5,-0.8,1.8,2471.756,13.29,0.047,308.1
2024-04-27T08:34:03,42.805,6.029,-0.06,0.007,0.0,108.0,108.0,106.0,13.4,1505.2,354.0,-0.7,1.8,2471.7,13.29,0.06,276.7
2024-04-27T08:37:03,42.805,6.029,-0.032,0.012,-0.011,108.0,108.0,105.0,13.4,1505.2,1.0,-0.8,1.8,2471.725,13.29,0.034,290.6
2024-04-27T08:40:03,42.805,6.029,-0.041,0.014,-0.015,109.0,107.0,105.0,13.4,1505.2,355.2,-0.8,1.8,2471.712,13.29,0.043,288.9
2024-04-27T08:43:03,42.805,6.029,-0.08,0.036,-0.027,107.0,107.0,106.0,13.4,1505.2,2.1,-0.8,1.8,2471.71,13.29,0.087,294.2
2024-04-27T08:46:03,42.805,6.029,-0.049,0.023,-0.033,108.0,108.0,105.0,13.4,1505.2,358.4,-0.7,1.8,2471.713,13.29,0.054,295.1
2024-04-27T08:49:03,42.805,6.029,-0.032,0.033,0.008,109.0,109.0,105.0,13.4,1505.2,3.1,-0.7,1.8,2471.687,13.29,0.045,315.9
2024-04-27T08:52:03,42.805,6.029,-0.035,0.022,-0.014,108.0,109.0,105.0,13.4,1505.2,7.2,-0.8,1.8,2471.692,13.29,0.041,302.2
2024-04-27T08:55:03,42.805,6.029,-0.045,0.037,0.006,108.0,107.0,105.0,13.3,1505.2,358.8,-0.7,1.8,2471.707,13.29,0.058,309.4
2024-04-27T08:58:03,42.805,6.029,-0.071,0.015,-0.032,108.0,106.0,105.0,13.3,1505.2,358.4,-0.8,1.8,2471.718,13.29,0.072,281.9
2024-04-27T09:04:03,42.805,6.029,-0.052,0.01,-0.004,109.0,107.0,104.0,13.3,1505.2,0.5,-0.8,1.8,2471.722,13.29,0.052,280.9
2024-04-27T09:07:03,42.805,6.029,-0.049,0.021,-0.029,109.0,107.0,105.0,13.3,1505.2,359.4,-0.8,1.8,2471.761,13.29,0.053,293.2
2024-04-27T09:10:03,42.805,6.029,-0.029,0.045,0.0,108.0,107.0,106.0,13.4,1505.2,5.7,-0.8,1.8,2471.739,13.29,0.053,327.2
2024-04-27T09:13:03,42.805,6.029,-0.051,0.031,0.005,109.0,108.0,104.0,13.4,1505.2,6.5,-0.7,1.8,2471.709,13.29,0.059,301.3
2024-04-27T09:16:03,42.805,6.029,-0.039,0.035,-0.004,109.0,107.0,105.0,13.4,1505.2,10.0,-0.7,1.8,2471.716,13.29,0.052,311.9
2024-04-27T09:19:03,42.805,6.029,-0.032,0.02,0.008,108.0,108.0,105.0,13.3,1505.2,3.3,-0.7,1.8,2471.686,13.29,0.037,302.0
2024-04-27T09:22:03,42.805,6.029,-0.052,0.023,0.0,109.0,107.0,105.0,13.3,1505.2,354.0,-0.7,1.8,2471.735,13.29,0.056,293.9
2024-04-27T09:25:03,42.805,6.029,-0.036,0.043,-0.001,108.0,107.0,104.0,13.3,1505.2,3.4,-0.7,1.8,2471.714,13.29,0.056,320.1
2024-04-27T09:28:03,42.805,6.029,-0.048,0.018,-0.019,109.0,108.0,105.0,13.3,1505.2,354.8,-0.8,1.8,2471.712,13.29,0.051,290.6
2024-04-27T09:31:03,42.805,6.029,-0.032,0.016,-0.035,109.0,107.0,104.0,13.4,1505.2,3.2,-0.8,1.8,2471.737,13.29,0.035,296.6
2024-04-27T09:34:03,42.805,6.029,-0.03,0.041,-0.003,109.0,107.0,105.0,13.4,1505.2,357.8,-0.7,1.8,2471.715,13.29,0.05,323.8
2024-04-27T09:37:03,42.805,6.029,-0.049,0.042,-0.028,108.0,108.0,105.0,13.4,1505.2,358.9,-0.8,1.8,2471.706,13.29,0.064,310.6
2024-04-27T09:40:03,42.805,6.029,-0.051,0.035,-0.018,108.0,107.0,105.0,13.4,1505.2,0.0,-0.7,1.8,2471.714,13.29,0.061,304.5
2024-04-27T09:43:03,42.805,6.029,-0.05,0.037,-0.027,109.0,108.0,105.0,13.3,1505.2,7.3,-0.7,1.8,2471.706,13.29,0.062,306.5
2024-04-27T09:46:03,42.805,6.029,-0.047,0.025,-0.008,109.0,108.0,105.0,13.4,1505.2,2.8,-0.8,1.8,2471.71,13.29,0.053,298.0
2024-04-27T09:49:03,42.805,6.029,-0.056,0.048,-0.019,109.0,108.0,105.0,13.4,1505.2,6.7,-0.8,1.8,2471.678,13.29,0.073,310.6
2024-04-27T09:52:03,42.805,6.029,-0.026,0.028,-0.028,109.0,107.0,105.0,13.4,1505.2,5.4,-0.7,1.8,2471.704,13.29,0.038,317.1
2024-04-27T09:55:03,42.805,6.029,-0.038,0.022,-0.037,109.0,109.0,105.0,13.4,1505.2,6.2,-0.8,1.8,2471.686,13.29,0.043,300.1
2024-04-27T09:58:03,42.805,6.029,-0.05,0.037,-0.036,108.0,107.0,105.0,13.4,1505.2,356.0,-0.8,1.8,2471.693,13.29,0.062,306.5